| time (UTC) | temp F | wind direction | speed MPH | gust MPH | rain 1hr in | rain 24hr in | rain mn in | humidity % | barometer mb |
| 20260506211203 | 60 | 288 | 0.0 | 0.0 | 0.00 | 0.68 | 0.46 | 55 | 1013.0 |
| 20260506210701 | 61 | 288 | 0.0 | 0.0 | 0.00 | 0.68 | 0.46 | 57 | 1013.3 |
| 20260506210159 | 61 | 288 | 0.0 | 1.0 | 0.00 | 0.68 | 0.46 | 55 | 1013.3 |
| 20260506205659 | 60 | 288 | 0.0 | 1.0 | 0.00 | 0.68 | 0.46 | 54 | 1013.1 |
| 20260506205155 | 60 | 288 | 0.0 | 1.0 | 0.00 | 0.68 | 0.46 | 55 | 1013.1 |
| 20260506204654 | 60 | 288 | 0.0 | 4.0 | 0.00 | 0.68 | 0.46 | 53 | 1013.1 |
| 20260506204155 | 61 | 288 | 0.0 | 4.0 | 0.00 | 0.68 | 0.46 | 53 | 1013.3 |
| 20260506203912 | 61 | 315 | 0.0 | 3.0 | 0.00 | 0.68 | 0.46 | 52 | 1013.4 |
| 20260506203152 | 61 | 275 | 1.0 | 7.0 | 0.00 | 0.68 | 0.46 | 54 | 1013.2 |
| 20260506202651 | 62 | 271 | 1.0 | 7.0 | 0.00 | 0.68 | 0.46 | 49 | 1013.4 |
| 20260506202146 | 62 | 230 | 0.0 | 4.0 | 0.00 | 0.68 | 0.46 | 53 | 1013.1 |
| 20260506201905 | 62 | 267 | 0.0 | 7.0 | 0.00 | 0.68 | 0.46 | 55 | 1013.1 |
| 20260506201146 | 61 | 322 | 0.0 | 7.0 | 0.00 | 0.68 | 0.46 | 51 | 1012.9 |
| 20260506200905 | 61 | 302 | 0.0 | 1.0 | 0.00 | 0.68 | 0.46 | 54 | 1012.9 |
| 20260506200140 | 61 | 302 | 0.0 | 2.0 | 0.00 | 0.68 | 0.46 | 53 | 1012.9 |
| 20260506195640 | 61 | 302 | 0.0 | 2.0 | 0.00 | 0.68 | 0.46 | 56 | 1013.1 |
| 20260506195138 | 61 | 269 | 0.0 | 2.0 | 0.00 | 0.68 | 0.46 | 52 | 1013.1 |
| 20260506194901 | 62 | 223 | 0.0 | 2.0 | 0.00 | 0.68 | 0.46 | 53 | 1013.2 |
| 20260506194136 | 61 | 250 | 1.0 | 6.0 | 0.00 | 0.68 | 0.46 | 51 | 1013.3 |
| 20260506193632 | 62 | 249 | 1.0 | 7.0 | 0.00 | 0.68 | 0.46 | 49 | 1013.4 |
| 20260506193133 | 62 | 244 | 1.0 | 7.0 | 0.00 | 0.68 | 0.46 | 52 | 1013.3 |
| 20260506192632 | 62 | 304 | 1.0 | 7.0 | 0.00 | 0.68 | 0.46 | 53 | 1013.4 |
| 20260506192405 | 63 | 265 | 1.0 | 7.0 | 0.00 | 0.68 | 0.46 | 49 | 1013.3 |
| 20260506191632 | 62 | 321 | 0.0 | 3.0 | 0.00 | 0.68 | 0.46 | 52 | 1013.1 |
| 20260506191130 | 62 | 302 | 1.0 | 6.0 | 0.00 | 0.69 | 0.46 | 55 | 1013.0 |
| 20260506190631 | 62 | 271 | 0.0 | 6.0 | 0.00 | 0.70 | 0.46 | 53 | 1013.2 |
| 20260506190126 | 61 | 343 | 0.0 | 2.0 | 0.00 | 0.71 | 0.46 | 57 | 1013.0 |
| 20260506185624 | 61 | 102 | 0.0 | 2.0 | 0.00 | 0.71 | 0.46 | 56 | 1013.0 |
| 20260506185125 | 61 | 177 | 0.0 | 6.0 | 0.00 | 0.72 | 0.46 | 55 | 1012.9 |
| 20260506184629 | 62 | 296 | 0.0 | 6.0 | 0.00 | 0.74 | 0.46 | 53 | 1013.0 |
| 20260506184128 | 63 | 242 | 0.0 | 5.0 | 0.00 | 0.74 | 0.46 | 51 | 1013.0 |
| 20260506183122 | 61 | 269 | 0.0 | 2.0 | 0.00 | 0.75 | 0.46 | 55 | 1013.3 |
| 20260506182620 | 60 | 306 | 0.0 | 2.0 | 0.00 | 0.75 | 0.46 | 55 | 1013.1 |
| 20260506182116 | 61 | 134 | 0.0 | 5.0 | 0.00 | 0.75 | 0.46 | 57 | 1013.0 |
| 20260506181619 | 62 | 269 | 1.0 | 5.0 | 0.00 | 0.75 | 0.46 | 57 | 1012.9 |
| 20260506181340 | 62 | 306 | 1.0 | 4.0 | 0.00 | 0.75 | 0.46 | 54 | 1013.0 |
| 20260506180616 | 61 | 274 | 1.0 | 4.0 | 0.00 | 0.75 | 0.46 | 57 | 1013.0 |
| 20260506180118 | 61 | 319 | 0.0 | 5.0 | 0.00 | 0.75 | 0.46 | 53 | 1013.1 |
| 20260506175614 | 61 | 289 | 0.0 | 5.0 | 0.00 | 0.75 | 0.46 | 61 | 1013.2 |
| 20260506175115 | 60 | 56 | 0.0 | 2.0 | 0.00 | 0.75 | 0.46 | 58 | 1013.0 |
| 20260506174609 | 59 | 57 | 0.0 | 2.0 | 0.00 | 0.75 | 0.46 | 57 | 1013.1 |
| 20260506174109 | 59 | 25 | 0.0 | 2.0 | 0.00 | 0.75 | 0.46 | 56 | 1013.0 |
| 20260506173607 | 60 | 5 | 0.0 | 2.0 | 0.00 | 0.75 | 0.46 | 59 | 1012.8 |
| 20260506173105 | 60 | 306 | 0.0 | 8.0 | 0.00 | 0.75 | 0.46 | 57 | 1012.7 |
| 20260506172604 | 60 | 258 | 1.0 | 9.0 | 0.00 | 0.75 | 0.46 | 61 | 1012.9 |
| 20260506172105 | 60 | 43 | 0.0 | 9.0 | 0.00 | 0.75 | 0.46 | 60 | 1013.1 |
| 20260506171606 | 60 | 265 | 0.0 | 4.0 | 0.00 | 0.75 | 0.46 | 62 | 1013.1 |
| 20260506171104 | 60 | 302 | 0.0 | 3.0 | 0.00 | 0.75 | 0.46 | 61 | 1013.3 |
| 20260506170603 | 59 | 286 | 0.0 | 2.0 | 0.00 | 0.75 | 0.46 | 59 | 1013.3 |
| 20260506170555 | 59 | 290 | 0.0 | 2.0 | 0.00 | 0.75 | 0.46 | 62 | 1013.5 |
| 20260506165819 | 58 | 53 | 0.0 | 3.0 | 0.00 | 0.75 | 0.46 | 60 | 1013.6 |
| 20260506165058 | 58 | 127 | 0.0 | 3.0 | 0.00 | 0.75 | 0.46 | 63 | 1013.3 |
| 20260506164558 | 58 | 27 | 0.0 | 2.0 | 0.00 | 0.75 | 0.46 | 61 | 1013.5 |
| 20260506164053 | 58 | 304 | 0.0 | 4.0 | 0.00 | 0.75 | 0.46 | 60 | 1013.6 |
| 20260506163811 | 58 | 257 | 0.0 | 4.0 | 0.00 | 0.75 | 0.46 | 60 | 1013.6 |
| 20260506163054 | 58 | 51 | 0.0 | 6.0 | 0.00 | 0.75 | 0.46 | 61 | 1013.6 |
| 20260506162553 | 58 | 259 | 1.0 | 9.0 | 0.00 | 0.75 | 0.46 | 61 | 1013.7 |
| 20260506162057 | 58 | 319 | 1.0 | 9.0 | 0.00 | 0.75 | 0.46 | 65 | 1013.8 |
| 20260506161549 | 57 | 29 | 0.0 | 2.0 | 0.00 | 0.75 | 0.46 | 63 | 1013.8 |
| 20260506160550 | 56 | 5 | 0.0 | 1.0 | 0.00 | 0.75 | 0.46 | 66 | 1013.8 |
| 20260506160310 | 56 | 294 | 0.0 | 3.0 | 0.00 | 0.75 | 0.46 | 64 | 1013.7 |
| 20260506155540 | 56 | 12 | 0.0 | 3.0 | 0.00 | 0.75 | 0.46 | 66 | 1013.9 |
| 20260506155044 | 55 | 30 | 0.0 | 0.0 | 0.00 | 0.75 | 0.46 | 66 | 1013.7 |
| 20260506154535 | 55 | 30 | 0.0 | 2.0 | 0.00 | 0.75 | 0.46 | 66 | 1013.6 |
| 20260506154035 | 55 | 17 | 0.0 | 2.0 | 0.00 | 0.75 | 0.46 | 68 | 1013.5 |
| 20260506153538 | 55 | 42 | 0.0 | 2.0 | 0.00 | 0.75 | 0.46 | 69 | 1013.6 |
| 20260506153030 | 54 | 42 | 0.0 | 2.0 | 0.00 | 0.75 | 0.46 | 67 | 1013.4 |
| 20260506152530 | 55 | 0 | 0.0 | 1.0 | 0.00 | 0.75 | 0.46 | 73 | 1013.3 |
| 20260506152032 | 54 | 0 | 0.0 | 2.0 | 0.00 | 0.75 | 0.46 | 71 | 1013.1 |
| 20260506151525 | 54 | 324 | 0.0 | 2.0 | 0.00 | 0.75 | 0.46 | 75 | 1013.0 |
| 20260506151027 | 53 | 335 | 0.0 | 3.0 | 0.00 | 0.75 | 0.46 | 73 | 1013.0 |
| 20260506150528 | 53 | 327 | 0.0 | 3.0 | 0.00 | 0.75 | 0.46 | 73 | 1013.1 |
| 20260506150024 | 52 | 10 | 0.0 | 3.0 | 0.00 | 0.75 | 0.46 | 73 | 1013.1 |
| 20260506145525 | 52 | 39 | 0.0 | 3.0 | 0.00 | 0.75 | 0.46 | 74 | 1013.1 |
| 20260506145021 | 52 | 346 | 0.0 | 1.0 | 0.00 | 0.75 | 0.46 | 77 | 1013.2 |
| 20260506144743 | 52 | 346 | 0.0 | 2.0 | 0.00 | 0.75 | 0.46 | 77 | 1013.0 |
| 20260506144019 | 52 | 355 | 0.0 | 2.0 | 0.00 | 0.75 | 0.46 | 78 | 1013.1 |
| 20260506143517 | 51 | 269 | 0.0 | 3.0 | 0.00 | 0.75 | 0.46 | 78 | 1013.0 |
| 20260506143233 | 51 | 268 | 0.0 | 3.0 | 0.00 | 0.75 | 0.46 | 78 | 1013.1 |
| 20260506142515 | 51 | 244 | 0.0 | 3.0 | 0.00 | 0.75 | 0.46 | 80 | 1013.1 |
| 20260506142013 | 51 | 247 | 0.0 | 3.0 | 0.00 | 0.75 | 0.46 | 80 | 1013.0 |
| 20260506141512 | 50 | 72 | 0.0 | 2.0 | 0.00 | 0.75 | 0.46 | 80 | 1013.0 |
| 20260506141016 | 51 | 319 | 0.0 | 2.0 | 0.00 | 0.75 | 0.46 | 81 | 1013.0 |
| 20260506140010 | 50 | 294 | 0.0 | 2.0 | 0.00 | 0.75 | 0.46 | 82 | 1012.8 |
| 20260506135511 | 50 | 311 | 0.0 | 0.0 | 0.00 | 0.75 | 0.46 | 83 | 1012.9 |
| 20260506135003 | 50 | 310 | 0.0 | 1.0 | 0.00 | 0.75 | 0.46 | 84 | 1012.6 |
| 20260506134725 | 49 | 311 | 0.0 | 1.0 | 0.00 | 0.75 | 0.46 | 85 | 1012.5 |
| 20260506134006 | 49 | 281 | 0.0 | 1.0 | 0.00 | 0.75 | 0.46 | 86 | 1012.4 |
| 20260506133458 | 48 | 281 | 0.0 | 1.0 | 0.00 | 0.75 | 0.46 | 87 | 1012.4 |
| 20260506133000 | 48 | 281 | 0.0 | 0.0 | 0.00 | 0.75 | 0.46 | 89 | 1012.4 |
| 20260506132502 | 48 | 281 | 0.0 | 0.0 | 0.00 | 0.75 | 0.46 | 89 | 1012.3 |
| 20260506131957 | 47 | 281 | 0.0 | 0.0 | 0.00 | 0.75 | 0.46 | 89 | 1012.3 |
| 20260506131456 | 47 | 281 | 0.0 | 0.0 | 0.00 | 0.75 | 0.46 | 90 | 1012.3 |
| 20260506130958 | 47 | 281 | 0.0 | 0.0 | 0.00 | 0.75 | 0.46 | 90 | 1012.3 |
| 20260506130452 | 47 | 281 | 0.0 | 3.0 | 0.00 | 0.75 | 0.46 | 90 | 1012.2 |
| 20260506125951 | 47 | 277 | 0.0 | 3.0 | 0.00 | 0.75 | 0.46 | 90 | 1012.2 |
| 20260506125715 | 47 | 316 | 0.0 | 0.0 | 0.00 | 0.75 | 0.46 | 90 | 1012.1 |
| 20260506124945 | 47 | 316 | 0.0 | 0.0 | 0.00 | 0.75 | 0.46 | 91 | 1011.9 |
| 20260506124444 | 47 | 316 | 0.0 | 0.0 | 0.00 | 0.75 | 0.46 | 91 | 1011.8 |
| 20260506123945 | 47 | 316 | 0.0 | 1.0 | 0.00 | 0.75 | 0.46 | 91 | 1011.9 |
| 20260506123444 | 47 | 316 | 0.0 | 1.0 | 0.00 | 0.75 | 0.46 | 91 | 1012.1 |
| 20260506122948 | 47 | 316 | 0.0 | 2.0 | 0.00 | 0.75 | 0.46 | 91 | 1012.1 |
| 20260506122443 | 47 | 316 | 0.0 | 2.0 | 0.00 | 0.75 | 0.46 | 91 | 1012.1 |
| 20260506121943 | 47 | 289 | 0.0 | 1.0 | 0.00 | 0.75 | 0.46 | 91 | 1012.1 |
| 20260506121443 | 47 | 289 | 0.0 | 1.0 | 0.00 | 0.75 | 0.46 | 91 | 1012.0 |
| 20260506120438 | 47 | 285 | 0.0 | 1.0 | 0.00 | 0.75 | 0.46 | 91 | 1011.8 |
| 20260506115939 | 47 | 285 | 0.0 | 0.0 | 0.00 | 0.75 | 0.46 | 91 | 1011.9 |
| 20260506115435 | 47 | 285 | 0.0 | 1.0 | 0.00 | 0.75 | 0.46 | 91 | 1012.1 |
| 20260506114936 | 47 | 285 | 0.0 | 2.0 | 0.00 | 0.75 | 0.46 | 91 | 1011.7 |
| 20260506114435 | 47 | 310 | 0.0 | 2.0 | 0.00 | 0.75 | 0.46 | 91 | 1011.6 |
| 20260506113934 | 47 | 331 | 0.0 | 0.0 | 0.00 | 0.75 | 0.46 | 91 | 1011.6 |
| 20260506113431 | 47 | 331 | 0.0 | 0.0 | 0.00 | 0.75 | 0.46 | 91 | 1011.7 |
| 20260506112931 | 47 | 331 | 0.0 | 0.0 | 0.00 | 0.75 | 0.46 | 91 | 1011.6 |
| 20260506112429 | 47 | 331 | 0.0 | 0.0 | 0.00 | 0.75 | 0.46 | 91 | 1011.5 |
| 20260506112157 | 47 | 331 | 0.0 | 0.0 | 0.00 | 0.75 | 0.46 | 91 | 1011.2 |
| 20260506111653 | 47 | 331 | 0.0 | 0.0 | 0.00 | 0.75 | 0.46 | 91 | 1011.0 |
| 20260506110927 | 47 | 333 | 0.0 | 0.0 | 0.00 | 0.75 | 0.46 | 91 | 1010.7 |
| 20260506110427 | 47 | 333 | 0.0 | 0.0 | 0.00 | 0.75 | 0.46 | 91 | 1010.7 |
| 20260506105922 | 47 | 333 | 0.0 | 0.0 | 0.00 | 0.75 | 0.46 | 91 | 1010.6 |
| 20260506105427 | 47 | 335 | 0.0 | 2.0 | 0.00 | 0.75 | 0.46 | 92 | 1010.6 |
| 20260506104923 | 47 | 335 | 0.0 | 2.0 | 0.00 | 0.75 | 0.46 | 92 | 1010.7 |
| 20260506104417 | 47 | 334 | 0.0 | 7.0 | 0.00 | 0.75 | 0.46 | 92 | 1010.5 |
| 20260506103916 | 47 | 342 | 0.0 | 7.0 | 0.00 | 0.75 | 0.46 | 92 | 1010.5 |
| 20260506103634 | 48 | 321 | 0.0 | 3.0 | 0.00 | 0.75 | 0.46 | 92 | 1010.6 |
| 20260506102913 | 48 | 321 | 0.0 | 3.0 | 0.00 | 0.75 | 0.46 | 92 | 1010.3 |
| 20260506102640 | 48 | 240 | 0.0 | 4.0 | 0.00 | 0.75 | 0.46 | 92 | 1010.2 |
| 20260506101912 | 48 | 223 | 0.0 | 4.0 | 0.00 | 0.75 | 0.46 | 92 | 1010.4 |
| 20260506101408 | 48 | 279 | 0.0 | 1.0 | 0.00 | 0.75 | 0.46 | 92 | 1009.7 |
| 20260506100907 | 48 | 291 | 0.0 | 2.0 | 0.00 | 0.75 | 0.46 | 92 | 1009.2 |
| 20260506100407 | 48 | 300 | 0.0 | 2.0 | 0.00 | 0.75 | 0.46 | 92 | 1009.3 |
| 20260506100133 | 48 | 298 | 0.0 | 2.0 | 0.00 | 0.75 | 0.46 | 92 | 1009.4 |
| 20260506095624 | 48 | 271 | 0.0 | 2.0 | 0.00 | 0.75 | 0.46 | 92 | 1009.6 |
| 20260506094900 | 48 | 288 | 0.0 | 1.0 | 0.00 | 0.75 | 0.46 | 92 | 1009.5 |
| 20260506094359 | 48 | 288 | 0.0 | 1.0 | 0.01 | 0.75 | 0.46 | 92 | 1009.4 |
| 20260506094122 | 49 | 288 | 0.0 | 0.0 | 0.01 | 0.75 | 0.46 | 92 | 1009.2 |
| 20260506093354 | 49 | 288 | 0.0 | 0.0 | 0.01 | 0.75 | 0.46 | 92 | 1009.0 |
| 20260506092856 | 49 | 288 | 0.0 | 0.0 | 0.01 | 0.75 | 0.46 | 92 | 1009.1 |
| 20260506092615 | 49 | 288 | 0.0 | 2.0 | 0.01 | 0.75 | 0.46 | 92 | 1009.1 |
| 20260506091850 | 49 | 288 | 0.0 | 2.0 | 0.01 | 0.75 | 0.46 | 92 | 1009.1 |
| 20260506091352 | 49 | 294 | 0.0 | 2.0 | 0.01 | 0.75 | 0.46 | 92 | 1009.0 |
| 20260506090851 | 50 | 321 | 0.0 | 3.0 | 0.01 | 0.75 | 0.46 | 92 | 1009.0 |
| 20260506090346 | 49 | 342 | 0.0 | 3.0 | 0.01 | 0.75 | 0.46 | 93 | 1009.0 |
| 20260506085848 | 49 | 215 | 0.0 | 0.0 | 0.01 | 0.75 | 0.46 | 92 | 1009.1 |
| 20260506085347 | 49 | 214 | 0.0 | 2.0 | 0.01 | 0.75 | 0.46 | 92 | 1009.2 |
| 20260506084841 | 50 | 214 | 0.0 | 2.0 | 0.01 | 0.75 | 0.46 | 92 | 1009.1 |
| 20260506083841 | 50 | 5 | 0.0 | 1.0 | 0.00 | 0.74 | 0.45 | 92 | 1008.3 |
| 20260506083338 | 50 | 19 | 0.0 | 3.0 | 0.00 | 0.74 | 0.45 | 92 | 1008.9 |
| 20260506082841 | 50 | 11 | 0.0 | 3.0 | 0.00 | 0.74 | 0.45 | 92 | 1009.1 |
| 20260506082609 | 50 | 19 | 0.0 | 2.0 | 0.00 | 0.74 | 0.45 | 92 | 1008.8 |
| 20260506082055 | 50 | 322 | 0.0 | 2.0 | 0.00 | 0.74 | 0.45 | 92 | 1008.7 |
| 20260506081335 | 50 | 28 | 0.0 | 2.0 | 0.00 | 0.74 | 0.45 | 92 | 1008.3 |
| 20260506080834 | 51 | 28 | 0.0 | 1.0 | 0.01 | 0.74 | 0.45 | 92 | 1008.0 |
| 20260506080335 | 51 | 5 | 0.0 | 1.0 | 0.01 | 0.74 | 0.45 | 92 | 1008.0 |
| 20260506073328 | 51 | 206 | 0.0 | 1.0 | 0.09 | 0.74 | 0.45 | 92 | 1007.7 |
| 20260506072327 | 51 | 32 | 0.0 | 9.0 | 0.12 | 0.74 | 0.45 | 92 | 1007.9 |
| 20260506072046 | 52 | 11 | 0.0 | 1.0 | 0.15 | 0.74 | 0.45 | 92 | 1007.5 |
| 20260506071320 | 52 | 338 | 0.0 | 3.0 | 0.15 | 0.74 | 0.45 | 92 | 1007.4 |
| 20260506070821 | 52 | 338 | 0.0 | 3.0 | 0.14 | 0.73 | 0.44 | 92 | 1007.4 |
| 20260506070318 | 52 | 223 | 0.0 | 4.0 | 0.13 | 0.72 | 0.44 | 92 | 1007.3 |
| 20260506062305 | 54 | 48 | 0.0 | 1.0 | 0.13 | 0.62 | 0.33 | 91 | 1007.1 |
| 20260506061802 | 54 | 300 | 0.0 | 1.0 | 0.11 | 0.59 | 0.30 | 92 | 1007.0 |
| 20260506061303 | 55 | 355 | 0.0 | 1.0 | 0.14 | 0.59 | 0.30 | 91 | 1006.8 |
| 20260506061021 | 55 | 355 | 0.0 | 0.0 | 0.17 | 0.59 | 0.30 | 92 | 1006.7 |
| 20260506060302 | 56 | 355 | 0.0 | 0.0 | 0.20 | 0.59 | 0.30 | 92 | 1006.7 |
| 20260506051255 | 59 | 202 | 0.0 | 0.0 | 0.15 | 0.45 | 0.16 | 94 | 1006.1 |
| 20260506050749 | 59 | 202 | 0.0 | 0.0 | 0.12 | 0.42 | 0.13 | 94 | 1006.1 |
| 20260506050248 | 59 | 202 | 0.0 | 0.0 | 0.10 | 0.39 | 0.10 | 94 | 1006.1 |
| 20260506044747 | 60 | 195 | 0.0 | 0.0 | 0.07 | 0.35 | 0.06 | 93 | 1006.1 |
| 20260506044503 | 60 | 195 | 0.0 | 0.0 | 0.07 | 0.35 | 0.06 | 93 | 1006.1 |
| 20260506043741 | 60 | 194 | 0.0 | 0.0 | 0.06 | 0.34 | 0.05 | 93 | 1006.1 |
| 20260506043241 | 60 | 195 | 0.0 | 0.0 | 0.04 | 0.32 | 0.03 | 93 | 1006.1 |
| 20260506042738 | 60 | 199 | 0.0 | 0.0 | 0.03 | 0.31 | 0.02 | 93 | 1006.1 |
| 20260506042234 | 60 | 200 | 0.0 | 0.0 | 0.03 | 0.30 | 0.01 | 93 | 1005.8 |
| 20260506041735 | 60 | 200 | 0.0 | 0.0 | 0.03 | 0.30 | 0.01 | 93 | 1005.5 |
| 20260506041233 | 60 | 200 | 0.0 | 0.0 | 0.03 | 0.30 | 0.01 | 93 | 1005.5 |
| 20260506040728 | 60 | 200 | 0.0 | 0.0 | 0.03 | 0.30 | 0.01 | 94 | 1005.5 |
| 20260506040228 | 60 | 200 | 0.0 | 0.0 | 0.02 | 0.29 | 0.00 | 93 | 1005.6 |
| 20260506035729 | 60 | 199 | 0.0 | 0.0 | 0.02 | 0.29 | 0.29 | 94 | 1005.6 |
| 20260506035229 | 60 | 199 | 0.0 | 0.0 | 0.02 | 0.29 | 0.29 | 94 | 1005.6 |
| 20260506034729 | 60 | 199 | 0.0 | 0.0 | 0.03 | 0.28 | 0.29 | 94 | 1005.7 |
| 20260506034230 | 60 | 199 | 0.0 | 1.0 | 0.03 | 0.28 | 0.28 | 94 | 1005.8 |
| 20260506033950 | 60 | 199 | 0.0 | 1.0 | 0.05 | 0.28 | 0.28 | 94 | 1005.9 |
| 20260506033226 | 60 | 199 | 0.0 | 1.0 | 0.06 | 0.28 | 0.28 | 93 | 1005.9 |
| 20260506032723 | 60 | 199 | 0.0 | 1.0 | 0.06 | 0.28 | 0.28 | 93 | 1006.1 |
| 20260506032218 | 60 | 106 | 0.0 | 0.0 | 0.06 | 0.27 | 0.27 | 93 | 1006.2 |
| 20260506031937 | 60 | 106 | 0.0 | 0.0 | 0.06 | 0.27 | 0.27 | 93 | 1006.2 |
| 20260506031215 | 60 | 106 | 0.0 | 0.0 | 0.06 | 0.27 | 0.27 | 93 | 1006.4 |
| 20260506030710 | 60 | 80 | 0.0 | 0.0 | 0.06 | 0.27 | 0.27 | 94 | 1006.6 |
| 20260506030208 | 60 | 79 | 0.0 | 0.0 | 0.06 | 0.27 | 0.27 | 94 | 1006.6 |
| 20260506025707 | 61 | 49 | 0.0 | 0.0 | 0.06 | 0.27 | 0.27 | 94 | 1006.7 |
| 20260506025204 | 61 | 49 | 0.0 | 0.0 | 0.06 | 0.27 | 0.27 | 94 | 1006.8 |
| 20260506024704 | 61 | 49 | 0.0 | 0.0 | 0.05 | 0.25 | 0.26 | 94 | 1006.8 |
| 20260506024203 | 61 | 49 | 0.0 | 0.0 | 0.05 | 0.25 | 0.25 | 94 | 1006.9 |
| 20260506023659 | 61 | 50 | 0.0 | 0.0 | 0.03 | 0.23 | 0.23 | 94 | 1007.0 |
| 20260506023419 | 61 | 50 | 0.0 | 0.0 | 0.02 | 0.22 | 0.22 | 94 | 1007.1 |
| 20260506022655 | 61 | 50 | 0.0 | 0.0 | 0.02 | 0.22 | 0.22 | 94 | 1007.0 |
| 20260506022152 | 61 | 47 | 0.0 | 1.0 | 0.01 | 0.21 | 0.21 | 94 | 1007.1 |
| 20260506021653 | 61 | 47 | 0.0 | 1.0 | 0.01 | 0.21 | 0.21 | 94 | 1007.0 |
| 20260506021149 | 61 | 150 | 0.0 | 5.0 | 0.01 | 0.21 | 0.21 | 94 | 1007.1 |
| 20260506020647 | 61 | 159 | 0.0 | 5.0 | 0.01 | 0.21 | 0.21 | 94 | 1007.1 |
| 20260506020408 | 61 | 130 | 0.0 | 6.0 | 0.01 | 0.21 | 0.21 | 94 | 1007.0 |
| 20260506015646 | 61 | 188 | 0.0 | 6.0 | 0.01 | 0.21 | 0.21 | 94 | 1007.0 |
| 20260506015412 | 61 | 90 | 0.0 | 2.0 | 0.01 | 0.21 | 0.21 | 94 | 1006.8 |
| 20260506014647 | 61 | 157 | 0.0 | 2.0 | 0.00 | 0.20 | 0.21 | 94 | 1006.8 |
| 20260506014144 | 61 | 157 | 0.0 | 2.0 | 0.00 | 0.20 | 0.20 | 94 | 1006.8 |
| 20260506013913 | 61 | 227 | 0.0 | 2.0 | 0.00 | 0.20 | 0.20 | 94 | 1006.5 |
| 20260506013142 | 62 | 84 | 0.0 | 0.0 | 0.00 | 0.20 | 0.20 | 94 | 1006.6 |
| 20260506012637 | 62 | 84 | 0.0 | 0.0 | 0.00 | 0.20 | 0.20 | 94 | 1006.1 |
| 20260506012140 | 62 | 84 | 0.0 | 0.0 | 0.00 | 0.20 | 0.20 | 94 | 1006.3 |
| 20260506011634 | 62 | 84 | 0.0 | 0.0 | 0.00 | 0.20 | 0.20 | 94 | 1006.4 |
| 20260506011358 | 62 | 84 | 0.0 | 0.0 | 0.00 | 0.20 | 0.20 | 94 | 1006.4 |
| 20260506010633 | 62 | 84 | 0.0 | 0.0 | 0.00 | 0.20 | 0.20 | 94 | 1006.4 |
| 20260506010134 | 62 | 84 | 0.0 | 0.0 | 0.00 | 0.20 | 0.20 | 94 | 1006.3 |
| 20260506005632 | 62 | 84 | 0.0 | 0.0 | 0.00 | 0.20 | 0.20 | 94 | 1006.1 |
| 20260506005132 | 62 | 84 | 0.0 | 0.0 | 0.00 | 0.20 | 0.20 | 94 | 1006.1 |
| 20260506004632 | 62 | 84 | 0.0 | 0.0 | 0.00 | 0.20 | 0.20 | 94 | 1006.2 |
| 20260506004130 | 62 | 84 | 0.0 | 0.0 | 0.00 | 0.20 | 0.20 | 94 | 1006.1 |
| 20260506003633 | 62 | 84 | 0.0 | 0.0 | 0.01 | 0.20 | 0.20 | 94 | 1006.1 |
| 20260506003129 | 62 | 84 | 0.0 | 0.0 | 0.01 | 0.20 | 0.20 | 94 | 1006.1 |
| 20260506002901 | 62 | 84 | 0.0 | 1.0 | 0.01 | 0.20 | 0.20 | 94 | 1006.1 |
| 20260506002128 | 62 | 84 | 0.0 | 1.0 | 0.04 | 0.20 | 0.20 | 94 | 1006.1 |
| 20260506001626 | 62 | 84 | 0.0 | 0.0 | 0.06 | 0.20 | 0.20 | 94 | 1006.2 |
| 20260506001126 | 62 | 84 | 0.0 | 0.0 | 0.07 | 0.20 | 0.20 | 94 | 1006.3 |
| 20260506000841 | 62 | 84 | 0.0 | 0.0 | 0.07 | 0.20 | 0.20 | 94 | 1006.4 |
| 20260506000125 | 62 | 84 | 0.0 | 0.0 | 0.07 | 0.20 | 0.20 | 94 | 1006.3 |
| 20260505235621 | 62 | 84 | 0.0 | 0.0 | 0.07 | 0.20 | 0.20 | 94 | 1006.2 |
| 20260505235120 | 63 | 84 | 0.0 | 0.0 | 0.07 | 0.20 | 0.20 | 94 | 1006.2 |
| 20260505234621 | 63 | 84 | 0.0 | 0.0 | 0.07 | 0.20 | 0.20 | 94 | 1006.3 |
| 20260505234120 | 63 | 84 | 0.0 | 0.0 | 0.07 | 0.20 | 0.20 | 94 | 1006.3 |
| 20260505233623 | 64 | 84 | 0.0 | 0.0 | 0.07 | 0.19 | 0.19 | 94 | 1006.3 |
| 20260505233116 | 64 | 84 | 0.0 | 0.0 | 0.08 | 0.19 | 0.19 | 94 | 1006.4 |
| 20260505232617 | 64 | 84 | 0.0 | 0.0 | 0.08 | 0.19 | 0.19 | 94 | 1006.5 |
| 20260505232115 | 64 | 84 | 0.0 | 0.0 | 0.05 | 0.16 | 0.16 | 94 | 1006.5 |
| 20260505231612 | 64 | 84 | 0.0 | 0.0 | 0.04 | 0.14 | 0.14 | 94 | 1006.9 |
| 20260505231113 | 64 | 84 | 0.0 | 0.0 | 0.04 | 0.13 | 0.13 | 94 | 1006.8 |
| 20260505230613 | 64 | 84 | 0.0 | 0.0 | 0.05 | 0.13 | 0.13 | 94 | 1006.7 |
| 20260505230113 | 64 | 84 | 0.0 | 0.0 | 0.05 | 0.13 | 0.13 | 94 | 1006.3 |
| 20260505225609 | 64 | 84 | 0.0 | 0.0 | 0.05 | 0.13 | 0.13 | 94 | 1006.6 |
| 20260505225109 | 64 | 83 | 0.0 | 0.0 | 0.06 | 0.13 | 0.13 | 94 | 1006.5 |
| 20260505224608 | 64 | 83 | 0.0 | 1.0 | 0.06 | 0.13 | 0.13 | 94 | 1006.6 |
| 20260505224108 | 64 | 83 | 0.0 | 1.0 | 0.06 | 0.13 | 0.13 | 94 | 1006.7 |
| 20260505223835 | 64 | 84 | 0.0 | 0.0 | 0.05 | 0.12 | 0.12 | 93 | 1006.4 |
| 20260505223337 | 64 | 84 | 0.0 | 0.0 | 0.04 | 0.11 | 0.11 | 93 | 1006.9 |
| 20260505222603 | 64 | 84 | 0.0 | 0.0 | 0.04 | 0.11 | 0.11 | 93 | 1006.8 |
| 20260505222059 | 64 | 84 | 0.0 | 0.0 | 0.04 | 0.11 | 0.11 | 93 | 1006.9 |
| 20260505221557 | 64 | 84 | 0.0 | 0.0 | 0.03 | 0.10 | 0.10 | 93 | 1006.7 |
| 20260505221317 | 64 | 84 | 0.0 | 1.0 | 0.02 | 0.09 | 0.10 | 92 | 1006.7 |
| 20260505220555 | 65 | 84 | 0.0 | 1.0 | 0.01 | 0.08 | 0.08 | 92 | 1007.1 |
| 20260505220107 | 65 | 84 | 0.0 | 0.0 | 0.01 | 0.08 | 0.08 | 93 | 1006.6 |
| 20260505215554 | 65 | 84 | 0.0 | 0.0 | 0.01 | 0.08 | 0.08 | 92 | 1006.4 |
| 20260505215054 | 65 | 84 | 0.0 | 0.0 | 0.00 | 0.07 | 0.07 | 93 | 1006.5 |
| 20260505214550 | 65 | 84 | 0.0 | 0.0 | 0.00 | 0.07 | 0.07 | 93 | 1006.4 |
| 20260505214308 | 65 | 84 | 0.0 | 0.0 | 0.00 | 0.07 | 0.07 | 93 | 1006.4 |
| 20260505213550 | 65 | 84 | 0.0 | 0.0 | 0.00 | 0.07 | 0.07 | 93 | 1006.5 |
| 20260505213314 | 65 | 84 | 0.0 | 0.0 | 0.00 | 0.07 | 0.07 | 93 | 1006.7 |
| 20260505212550 | 64 | 84 | 0.0 | 0.0 | 0.00 | 0.07 | 0.07 | 93 | 1006.7 |
| 20260505211545 | 64 | 84 | 0.0 | 0.0 | 0.00 | 0.07 | 0.07 | 93 | 1006.9 |